Regional Weather Roundup
Issued by NWS Jackson, KY

Home | Current Version | Previous Version | Graphics & Text | Print | Product List | Glossary On
Versions: 1 2 3 4 5 6 7 8 9 10 11 12 13 14 15 16 17 18 19 20 21 22 23 24 25 26 27 28 29 30 31 32 33 34 35 36 37 38 39 40 41 42 43 44 45 46 47 48 49 50
000
ASUS43 KJKL 201110
RWRJKL

EAST KENTUCKY HOURLY WEATHER ROUNDUP
NATIONAL WEATHER SERVICE JACKSON KY
600 AM EST MON FEB 20 2017

NOTE: "FAIR" INDICATES FEW OR NO CLOUDS BELOW 12,000 FEET WITH
NO SIGNIFICANT WEATHER AND/OR OBSTRUCTIONS TO VISIBILITY.

* THESE REPORTS ARE NOT UNDER NWS QUALITY CONTROL AND MAY NOT
  REPORT WEATHER SUCH AS PRECIPITATION AND FOG.

KYZ079-080-083-085-087-088-110-112-115-119-120-201200
...EASTERN KENTUCKY...

CITY           SKY/WX    TMP DP  RH WIND       PRES   REMARKS
JACKSON        CLEAR     45  41  86 CALM      30.20R
LONDON         CLEAR     36  33  89 CALM      30.19R
SOMERSET*      CLEAR     36  36 100 CALM      30.22R
MONTICELLO*    FOG       32  32 100 VRB5      30.21R VSB 1/4 WCI  27
WILLIAMSBURG*  SUNNY     39  39 100 SE3       30.20R
MIDDLESBORO*   FOG       38  38 100 CALM      30.23R VSB 1/4
HARLAN APT*    CLOUDY    37  37 100 CALM      30.22R VSB<1/4
PIKE CO APT*     N/A     43  43 100 S3        30.21R
BIG SANDY APT* FOG       37  37 100 CALM      30.22R VSB 1/2
MOREHEAD APT*  FOG       41  41 100 CALM      30.23R VSB<1/4
ASHLAND*       CLOUDY    39  37  93 CALM      30.22R VSB<1/4
$$

KYZ035-036-041-042-044-050-067-078-099-201200
...CENTRAL KENTUCKY...

CITY           SKY/WX    TMP DP  RH WIND       PRES   REMARKS
MT STERLING*   FOG       34  34 100 CALM      30.22R VSB 3/4
FLEMING/MASON* FOG       33  33 100 E3        30.23R VSB<1/4
DANVILLE*      FOG       34  34 100 CALM      30.21R VSB 1/4
LEXINGTON      CLEAR     42  40  92 E5        30.19S FOG
FRANKFORT      FOG       37  35  92 CALM      30.18R VSB 1/4
LOUISVILLE     FOG       41  39  93 CALM      30.19R VSB 1/8
LEBANON*       FOG       41  41 100 CALM      30.19R VSB 1/4
GLASGOW*       FOG      N/A N/A N/A CALM      30.18R VSB 3/4
BOWLING GREEN  FOG       40  39  97 CALM      30.19R VSB 1/4
$$

KYZ091>093-OHZ055-061-077-WVZ005-015-034-035-042-201200
...SOUTHERN OHIO/WEST VIRGINIA...

CITY           SKY/WX    TMP DP  RH WIND       PRES   REMARKS
COVINGTON      FOG       39  39 100 E3        30.21R VSB 1/4
COLUMBUS       FOG       40  38  93 SE3       30.20R VSB 1/8
DAYTON         FOG       35  35 100 SW5       30.22R VSB 1/4 WCI  31
WILMINGTON     FOG       34  34 100 CALM      30.21R VSB 1/4
HUNTINGTON     FOG       35  34  96 CALM      30.22R VSB 1/4
CHARLESTON     FOG       37  36  96 NE3       30.22S VSB 1/4
PINEVILLE*     FOG       36  33  91 MISG      30.26S VSB 1/4
BECKLEY        FOG       35  34  96 E3        30.20S VSB 1/4
BLUEFIELD      CLOUDY    43  40  89 SW3       30.21R
LOGAN CO APT*  FOG       43  43 100 CALM      30.20S VSB 1/2
$$

VAZ002-007-008-TNZ017-027-036-066-071-201200
...SOUTHWEST VIRGINIA/EAST TENNESSEE...

CITY           SKY/WX    TMP DP  RH WIND       PRES   REMARKS
WISE*          PTCLDY    43  43 100 CALM      30.22R
JONESVILLE*      N/A     32  32 100 CALM      30.23R
ABINGDON*      CLOUDY    39  39  99 E3        30.20S FOG
BRISTOL        FOG       35  34  96 CALM      30.21R VSB 3/4
MORRISTOWN*    SUNNY     43  43 100 CALM      30.18R
SEVIERVILLE*   SUNNY     34  34 100 CALM      30.18R
KNOXVILLE      CLOUDY    39  37  92 NE3       30.17R
LAFOLLETTE*    PTSUNNY   36  36 100 CALM      30.23R FOG
OAK RIDGE      CLOUDY    41  39  93 CALM      30.20R
CROSSVILLE     PTCLDY    39  38  96 CALM      30.19R FOG
NASHVILLE      MOCLDY    46  44  93 CALM      30.18R FOG
$$

...KEY TO REMARKS...
VSB - VISIBILITY IN MILES
WCI - WIND CHILL INDEX
HX  - HEAT INDEX

$$



USA.gov is the U.S. government's official web portal to all federal, state and local government web resources and services.